User: anonymous   Login
Location: Mohawk View
(42.7837°N, 73.7885°W)
Time: 11:24:10
(UTC+00:00)
Language:

Cosmos 2034 Rocket - Orbit

View from above orbital plane
View from above orbital plane
View from above satellite
View from above satellite

Ground track
Ground track

The orbit data is extracted from the following two-line orbital elements,

1 20150U 89059B   21259.58245964  .00000070  00000-0  56981-4 0  9991
2 20150  82.9437  22.4502 0027622 267.3136 103.9452 13.75659652613615
Epoch (UTC): 16 September 2021 13:58:44
Eccentricity: 0.0027622
inclination: 82.9437°
perigee height: 959 km
apogee height: 999 km
right ascension of ascending node: 22.4502°
argument of perigee: 267.3136°
revolutions per day: 13.75659652
mean anomaly at epoch: 103.9452°
orbit number at epoch: 61361

The dashed part of the orbit path shows where the satellite is in the earth's shadow,  

DLR